This is the latest recevied weather packets stored in our database for station/object DO7ZT-13. If no packets are shown the sender has not sent any weather packets the latest 10 day(s).
| Time | Temp. | Humidity | Pressure | Rain* | Wind** | Luminosity | Snow |
|---|---|---|---|---|---|---|---|
| 1777853420 | 17.22° C | 44% | 1012.1 hPa | 0 mm | 0.45 m/s, 204° | - | - |
| 1777853107 | 17.22° C | 44% | 1012.1 hPa | 0 mm | 0.45 m/s, 230° | - | - |
| 1777852507 | 17.22° C | 44% | 1012 hPa | 0 mm | 0.89 m/s, 252° | - | - |
| 1777852232 | 17.78° C | 43% | 1012 hPa | 0 mm | 1.34 m/s, 258° | - | - |
| 1777851920 | 17.22° C | 42% | 1011.5 hPa | 0 mm | 1.34 m/s, 199° | - | - |
| 1777851607 | 17.78° C | 42% | 1011.5 hPa | 0 mm | 1.34 m/s, 168° | - | - |
| 1777851320 | 17.78° C | 42% | 1011.5 hPa | 0 mm | 1.34 m/s, 165° | - | - |
| 1777851008 | 17.78° C | 41% | 1011.6 hPa | 0 mm | 2.24 m/s, 132° | - | - |
| 1777850720 | 17.78° C | 42% | 1011.6 hPa | 0 mm | 2.24 m/s, 174° | - | - |
| 1777850408 | 17.78° C | 42% | 1011.6 hPa | 0 mm | 1.79 m/s, 156° | - | - |
| 1777850120 | 17.78° C | 42% | 1011.6 hPa | 0 mm | 1.79 m/s, 165° | - | - |
| 1777849807 | 17.78° C | 41% | 1011.6 hPa | 0 mm | 1.79 m/s, 162° | - | - |
| 1777849520 | 17.78° C | 42% | 1011.6 hPa | 0 mm | 1.34 m/s, 168° | - | - |
| 1777849207 | 17.78° C | 41% | 1011.5 hPa | 0 mm | 1.34 m/s, 177° | - | - |
| 1777848920 | 17.78° C | 41% | 1011.5 hPa | 0 mm | 2.24 m/s, 154° | - | - |
| 1777848607 | 17.78° C | 40% | 1011.5 hPa | 0 mm | 2.24 m/s, 167° | - | - |
| 1777848320 | 18.89° C | 40% | 1011.5 hPa | 0 mm | 0.89 m/s, 150° | - | - |
| 1777848007 | 18.89° C | 40% | 1011.5 hPa | 0 mm | 1.34 m/s, 160° | - | - |
| 1777847720 | 18.89° C | 40% | 1011.5 hPa | 0 mm | 1.34 m/s, 154° | - | - |
| 1777847408 | 18.89° C | 39% | 1011.5 hPa | 0 mm | 0.89 m/s, 146° | - | - |
| 1777847120 | 18.89° C | 40% | 1011.5 hPa | 0 mm | 1.34 m/s, 191° | - | - |
| 1777846808 | 18.89° C | 39% | 1011.5 hPa | 0 mm | 3.13 m/s, 162° | - | - |
| 1777846520 | 18.89° C | 38% | 1011.6 hPa | 0 mm | 2.68 m/s, 156° | - | - |
| 1777846208 | 18.89° C | 38% | 1011.6 hPa | 0 mm | 2.24 m/s, 150° | - | - |
| 1777845920 | 18.89° C | 38% | 1011.6 hPa | 0 mm | 2.24 m/s, 141° | - | - |
* Rain latest hour (hover to see other rain measurements)
** Current wind speed in m/s (hover to see current wind gust speed)